Location: Vancouver
(49.2500°N, 123.1330°W)
Time: 16:01:11
(UTC-07:00)

S-56A Canister/Altair - Visible Passes

Search period start: 30 March 2015 00:00
Search period end: 09 April 2015 00:00
Orbit: 634 x 2501 km, 38.9° (Epoch: 30 March)

Date Brightness Start Highest point End Pass type
(mag) Time Alt. Az. Time Alt. Az. Time Alt. Az.
30 Mar 10.7 01:13:11 10° W 01:19:56 26° WSW 01:19:56 26° WSW visible
30 Mar 10.2 20:27:58 10° WSW 20:41:56 52° SSE 20:54:22 13° E visible
30 Mar 9.9 22:33:09 10° W 22:47:37 54° S 22:51:48 43° SSE visible
31 Mar 10.4 00:39:49 10° W 00:49:14 33° SW 00:49:14 33° SW visible
31 Mar 10.3 19:55:19 10° SW 20:08:54 51° SSE 20:22:38 10° E visible
31 Mar 10.1 22:00:08 10° WSW 22:14:37 55° S 22:21:05 34° SE visible
01 Apr 10.2 00:06:29 10° W 00:18:31 39° SW 00:18:31 39° SW visible
01 Apr 11.3 02:15:40 10° W 02:15:58 10° W 02:15:58 10° W visible
01 Apr 10.1 21:27:12 10° WSW 21:41:35 56° S 21:50:20 26° ESE visible
01 Apr 10.1 23:33:15 10° W 23:46:52 42° SSW 23:47:47 42° SSW visible
02 Apr 11.1 01:41:37 10° W 01:45:13 16° WSW 01:45:13 16° WSW visible
02 Apr 10.2 20:54:22 10° WSW 21:08:31 56° S 21:19:36 19° ESE visible
02 Apr 10.1 23:00:06 10° W 23:14:00 45° SSW 23:17:02 41° S visible
03 Apr 10.9 01:07:50 10° W 01:14:28 21° WSW 01:14:28 21° WSW visible
03 Apr 10.3 20:21:36 10° WSW 20:35:26 56° S 20:48:51 12° ESE visible
03 Apr 10.2 22:27:01 10° W 22:41:04 47° SSW 22:46:17 36° SSE visible
04 Apr 10.7 00:34:15 10° W 00:43:43 25° SW 00:43:43 25° SW visible
04 Apr 10.3 21:54:03 10° W 22:08:05 50° SSW 22:15:32 29° SE visible
05 Apr 10.6 00:00:49 10° W 00:12:42 29° SW 00:12:58 29° SW visible
05 Apr 10.3 21:21:09 10° W 21:35:03 51° SSW 21:44:48 22° SE visible
05 Apr 10.5 23:27:30 10° W 23:39:57 32° SW 23:42:15 30° SSW visible
06 Apr 10.3 20:48:21 10° W 21:02:01 53° SSW 21:14:05 16° SE visible
06 Apr 10.5 22:54:19 10° W 23:07:08 35° SSW 23:11:31 29° S visible
07 Apr 11.3 01:04:53 10° WSW 01:08:58 13° WSW 01:08:58 13° WSW visible
07 Apr 10.4 20:15:39 10° W 20:28:58 54° S 20:43:09 10° ESE visible
07 Apr 10.6 22:21:14 10° W 22:34:15 38° SSW 22:40:50 26° S visible
08 Apr 11.1 00:30:20 10° W 00:38:07 16° SW 00:38:17 15° SW visible
08 Apr 10.6 21:48:16 10° W 22:01:20 40° SSW 22:10:10 21° SSE visible
